Vertical_Velocity
-2 5 1 -1 2 3 4 6 -0 0 -1 -2 0 -1 -1 1 -2 -1 1 2 -1 4
-3 -3 -2 -2 2 -0 3 7 1 2 2 2 2 3 2 1 1 -2 -2 -2 -1 -1
-2 -2 0 2 4 3 3 0 5 2 3 2 -0 -2 -0 1 0 1 -1 -1 -3 -2
0 6 5 5 1 2 2 -5 -2 -0 2 3 1 -3 1 -0 -4 -2 -3 -3 2 11
8 5 -8 3 2 -2 1 -3 -2 1 -1 -1 2 2 3 -3 -6 -2 -4 3 7 1
-1 3 3 0 3 -2 -0 -0 -5 -5 -0 -2 3 -5 -1 -3 -4 -5 -1 -1 4 -3
7 4 6 0 -2 -0 -3 -2 2 4 -4 2 4 -2 -8 -4 -0 -1 -2 0 -1 -4
-7 2 -1 -0 0 -4 -5 2 -2 -1 1 -2 2 -1 -1 4 -6 18 -2 1 -4 1
-1 -0 -0 5 6 3 -1 1 2 -1 -3 1 -0 2 -0 4 -2 -4 1 -3 -0 0
-3 1 -1 0 -1 1 5 3 2 -1 -3 -2 3 0 0 1 5 1 -2 -1 -2 0
-2 1 0 1 3 -3 -2 -0 1 -4 -5 -3 1 -0 0 5 2 -2 1 -1 -2 2
-7 -2 3 4 -1 -0 -1 0 -9 -5 0 -2 0 0 1 -1 3 -0 -0 -0 -0 3
-3 -2 1 -8 -4 1 -12 -0 -8 -1 1 1 -0 1 0 -0 1 2 -2 -0 -2 1
-3 6 -6 -1 -5 -5 -5 4 -4 -2 -0 3 -0 -0 -2 -1 0 -1 -2 1 -4 0
Height
5732 5727 5721 5715 5709 5701 5694 5688 5683 5677 5670 5665 5658 5652 5647 5643 5639 5636 5633 5629 5626 5623
5719 5714 5707 5701 5694 5687 5682 5676 5667 5661 5653 5646 5641 5636 5631 5627 5621 5618 5615 5612 5610 5607
5706 5700 5693 5687 5680 5674 5664 5656 5649 5643 5637 5630 5624 5618 5613 5609 5605 5602 5598 5594 5589 5584
5691 5685 5677 5671 5663 5655 5649 5642 5635 5627 5620 5614 5607 5601 5596 5591 5586 5581 5576 5569 5562 5557
5675 5668 5661 5652 5646 5638 5631 5625 5618 5610 5603 5596 5590 5583 5577 5570 5563 5558 5551 5545 5542 5542
5659 5651 5644 5637 5631 5625 5617 5610 5601 5593 5587 5580 5572 5564 5557 5548 5539 5534 5532 5531 5531 5531
5645 5639 5633 5627 5619 5611 5602 5593 5584 5576 5569 5562 5553 5543 5535 5527 5523 5522 5522 5520 5522 5522
5633 5626 5619 5609 5601 5592 5583 5574 5567 5560 5553 5544 5536 5524 5515 5513 5512 5511 5512 5512 5513 5513
5617 5610 5603 5595 5585 5575 5568 5559 5550 5543 5534 5526 5516 5506 5501 5502 5503 5503 5503 5504 5505 5504
5601 5593 5585 5576 5568 5559 5550 5542 5534 5524 5514 5505 5496 5489 5490 5493 5495 5496 5496 5497 5497 5497
5582 5575 5568 5560 5552 5544 5534 5526 5517 5505 5495 5486 5479 5477 5481 5484 5487 5489 5490 5490 5491 5491
5567 5561 5554 5545 5536 5525 5517 5509 5499 5488 5479 5473 5470 5471 5475 5477 5480 5482 5483 5484 5485 5486
5551 5544 5535 5526 5519 5511 5502 5494 5483 5475 5470 5468 5467 5469 5471 5473 5475 5476 5477 5479 5480 5481
5531 5525 5519 5511 5504 5496 5488 5480 5472 5467 5466 5466 5466 5466 5468 5468 5469 5470 5471 5472 5475 5476